Regional Weather Roundup
Issued by NWS

Home | Current Version | Previous Version | Graphics & Text | Print | Product List | Glossary On
Versions: 1 2 3 4 5 6 7 8 9 10 11 12 13 14 15 16 17 18 19 20 21 22 23 24 25 26 27 28 29 30 31 32 33 34 35 36 37 38 39 40 41 42 43 44 45 46 47 48 49 50
000
ASUS43 KOAX 200402
RWRNE

WEATHER ROUNDUP FOR NEBRASKA
NATIONAL WEATHER SERVICE OMAHA NE
1100 PM CDT SAT APR 19 2014

NOTES: SATELLITE DATA IS BEING USED TO AUGMENT CLOUD COVER ABOVE
       12000 FEET.
       "FAIR" INDICATES FEW OR NO CLOUDS BELOW 12,000 FEET WITH NO
       SIGNIFICANT WEATHER AND/OR OBSTRUCTIONS TO VISIBILITY.

  * THESE STATIONS DO NOT REPORT WEATHER SUCH AS RAIN...SNOW OR FOG.

NEZ001>004-019>022-054>056-200500-
NEBRASKA PANHANDLE

CITY           SKY/WX    TMP DP  RH WIND       PRES   REMARKS
SCOTTSBLUFF    PTCLDY    52  35  52 E7        30.04R
ALLIANCE       CLEAR     40  31  70 S5        30.03R
CHADRON        CLEAR     46  36  68 SE8       30.00R
KIMBALL        CLEAR     45  34  66 SW6       30.06S
SIDNEY         CLEAR     43  33  68 W9        30.06R
$$

NEZ057>060-069>072-079>082-200500-
SOUTHWEST NEBRASKA

CITY           SKY/WX    TMP DP  RH WIND       PRES   REMARKS
NORTH PLATTE   PTCLDY    49  42  77 E6        30.01R
IMPERIAL       CLEAR     49  41  74 E9        30.01S
LEXINGTON      CLEAR     57  49  75 NE6       29.99S
MCCOOK         TSTM      58  51  78 SE3       30.01R
OGALLALA       CLEAR     54  39  58 CALM      30.01S
$$

NEZ005>010-023>029-035>040-094-200500-
NORTH CENTRAL NEBRASKA

CITY           SKY/WX    TMP DP  RH WIND       PRES   REMARKS
VALENTINE      PTCLDY    46  17  31 CALM      30.03S
AINSWORTH      MOCLDY    53  29  41 NE6       30.03F
BROKEN BOW     MOCLDY    56  42  59 N10       30.00S
O`NEILL        CLOUDY    57  30  35 NE7       30.02S
ORD            MOCLDY    58  43  57 N7        29.99R
THEDFORD       MOCLDY    56  36  47 E5        30.03F
$$

NEZ041-046>049-061>064-073>077-083>087-200500-
SOUTH CENTRAL NEBRASKA

CITY           SKY/WX    TMP DP  RH WIND       PRES   REMARKS
GRAND ISLAND   PTCLDY    62  51  67 SE7       29.95R
AURORA         PTCLDY    64  50  61 S7        29.96R
HASTINGS       PTCLDY    68  47  46 S6        29.95R
HEBRON         PTCLDY    65  48  52 S10       29.98R
HOLDREGE       PTCLDY    59  49  68 N6        29.97S
KEARNEY *      PTCLDY    59  48  67 NW6       29.98S
YORK           PTCLDY    66  48  52 SE10      29.96S
$$

NEZ011>018-030>034-042>045-200500-
NORTHEAST NEBRASKA

CITY           SKY/WX    TMP DP  RH WIND       PRES   REMARKS
NORFOLK        MOCLDY    63  47  55 NE5       29.99S
ALBION         CLOUDY    61  47  61 N6        29.99S
BLAIR          MOCLDY    69  43  38 S17       30.00S
COLUMBUS *     MOCLDY    66  48  52 CALM      29.98S
FREMONT        CLOUDY    69  43  38 SE10G20   29.98S
TEKAMAH        CLOUDY    71  44  37 S15       29.99R
$$

NEZ050>053-065>068-078-088>093-200500-
SOUTHEAST NEBRASKA

CITY           SKY/WX    TMP DP  RH WIND       PRES   REMARKS
LINCOLN        MOCLDY    70  44  39 S14G22    29.98S
OMAHA EPPLEY   MOCLDY    70  43  37 S18       29.99S
BEATRICE       CLOUDY    68  44  41 SE13      30.00S
FALLS CITY     PTCLDY    62  46  55 SE10      30.04S
NEBRASKA CITY  PTCLDY    68  44  41 S21       30.02S
PLATTSMOUTH    PTCLDY    67  41  38 SE10      30.01S
$$

NEZ044-045-051>053-067-200500-
OMAHA AREA

CITY           SKY/WX    TMP DP  RH WIND       PRES   REMARKS
OMAHA EPPLEY   MOCLDY    70  43  37 S18       29.99S
BLAIR          MOCLDY    69  43  38 S17       30.00S
FREMONT        CLOUDY    69  43  38 SE10G20   29.98S
MILLARD        MOCLDY    69  44  40 SE9G18    30.00S
OFFUTT AFB     MOCLDY    69  45  41 SE13      30.00S
PLATTSMOUTH    PTCLDY    67  41  38 SE10      30.01S
WAHOO          FAIR      66  43  42 SE13      29.98S
$$



USA.gov is the U.S. government's official web portal to all federal, state and local government web resources and services.